User: anonymous   Login
Location: Oshawa
(43.9000°N, 78.8670°W)
Time: 15:03:54
(UTC-04:00)
Language:

CZ-4C R/B - Orbit

View from above orbital plane
View from above orbital plane
View from above satellite
View from above satellite

Ground track
Ground track

The orbit data is extracted from the following two-line orbital elements,

1 32290U 07055B   16269.16834764  .00002631  00000-0  78747-4 0  9995
2 32290  97.5265   4.5293 0069559 357.6350   2.4552 15.33132899491194
Epoch (UTC): 25 September 2016 04:02:25
Eccentricity: 0.0069559
inclination: 97.5265°
perigee height: 419 km
apogee height: 514 km
right ascension of ascending node: 4.5293°
argument of perigee: 357.6350°
revolutions per day: 15.33132899
mean anomaly at epoch: 2.4552°
orbit number at epoch: 49119

The dashed part of the orbit path shows where the satellite is in the earth's shadow,  

DLR